Theta_e
301 302 302 301 299 298 298 298 300 299 298 297 300 301 301 300 298 301 308 309 307 308 309 312 312 312 312 317 320 320 324 324 324 323 323 323 324 325 326 326 335 331 331 327 329 332 332 346 346 353 340 336 348 341
301 301 301 302 299 297 298 298 298 298 298 298 297 298 301 300 298 299 307 306 309 310 307 308 308 309 308 312 316 317 322 326 332 332 327 328 324 326 329 331 331 332 329 329 326 328 352 350 352 348 347 348 349 347
302 302 301 301 300 297 298 298 297 298 299 298 297 297 298 298 296 298 302 307 309 312 313 312 312 310 309 308 309 316 320 319 322 324 329 331 333 328 331 336 334 335 337 335 336 345 344 342 340 341 347 349 346 349
302 301 301 301 301 298 298 298 298 298 298 298 297 296 296 295 295 297 301 306 308 311 313 316 315 315 314 312 309 310 313 315 318 320 325 326 327 327 325 331 332 333 337 341 345 342 343 337 334 338 342 347 347 345
301 301 301 301 301 298 297 297 298 298 298 298 297 295 295 295 295 299 304 307 309 311 314 314 313 314 314 313 312 310 311 316 317 319 321 321 320 324 325 326 332 329 336 340 342 338 342 341 336 338 342 345 345 345
300 301 300 300 300 298 297 297 297 298 297 297 296 295 294 294 295 303 312 310 308 308 313 317 317 316 314 313 313 312 313 316 317 317 318 320 320 325 326 328 333 330 332 334 335 334 336 336 336 335 340 343 343 341
297 300 300 299 299 298 297 297 297 297 297 296 295 295 294 295 297 304 309 308 307 308 313 317 318 317 314 313 313 313 313 315 315 315 316 317 317 322 323 323 329 329 328 328 329 329 334 335 335 335 332 341 339 338
298 299 300 299 299 298 297 297 297 297 296 294 294 294 297 300 302 306 308 308 307 308 313 317 321 319 316 316 317 316 316 316 318 318 318 317 317 322 323 323 324 326 326 327 326 326 327 327 333 333 331 329 337 337
301 298 298 298 298 298 297 297 297 297 296 294 294 300 304 305 309 310 308 306 306 310 315 318 320 324 320 317 320 319 318 319 318 317 317 318 319 322 323 320 321 323 326 325 324 325 324 326 327 328 331 334 336 338
303 301 298 298 298 297 297 297 298 297 295 294 299 307 310 310 310 307 309 312 312 313 313 316 317 323 319 321 322 323 322 320 322 320 318 318 319 319 320 322 325 325 323 323 322 324 324 325 325 327 328 326 330 331
302 302 299 298 297 297 296 297 298 297 295 301 307 311 311 309 309 312 315 316 316 316 315 314 313 322 319 322 324 324 325 325 324 324 322 324 324 327 325 325 325 324 323 322 323 323 322 321 322 326 326 325 325 331
301 302 301 299 297 296 297 298 298 296 303 303 302 304 309 310 313 314 316 316 315 316 319 317 316 320 321 323 325 324 324 324 325 324 326 326 328 328 325 324 323 323 322 323 322 323 323 323 322 322 324 325 325 327
301 302 301 299 297 297 298 298 297 296 300 304 305 310 310 313 312 313 315 316 318 318 322 322 323 322 322 322 324 324 323 325 323 326 326 328 326 326 324 323 322 320 320 320 320 320 321 322 322 322 323 324 323 326
301 302 301 298 297 298 298 298 296 296 301 308 311 306 312 312 312 313 316 319 319 320 320 319 321 322 322 324 323 323 324 324 324 325 327 328 324 323 322 321 321 321 320 319 319 319 318 319 321 322 323 325 326 325
300 302 299 297 298 298 298 297 294 299 304 309 312 310 310 312 314 315 317 318 318 318 318 319 320 321 322 322 322 323 324 324 326 328 326 325 324 323 322 322 321 320 320 319 320 319 318 317 319 322 323 325 324 325
302 298 298 298 298 298 298 295 296 302 307 310 310 310 313 314 315 314 315 317 317 317 318 318 318 320 320 320 321 322 321 325 323 322 321 322 321 320 319 318 317 317 318 318 318 318 318 318 318 320 322 324 323 323
298 299 299 298 298 298 296 299 301 305 308 309 310 311 312 315 316 317 319 316 316 318 320 319 320 320 321 320 319 322 325 321 319 319 320 320 318 317 316 315 316 317 318 317 317 318 318 317 318 321 323 322 317 316
301 299 299 298 297 296 299 301 305 306 308 309 311 313 314 315 319 320 316 317 318 318 318 318 318 319 321 320 321 321 319 319 318 318 317 317 316 316 316 315 316 317 318 317 318 319 319 321 322 322 322 321 320 320
300 299 298 295 298 302 304 305 307 310 308 310 312 313 314 317 315 314 316 315 315 315 316 317 315 317 319 321 320 318 317 317 317 316 316 315 314 316 315 316 317 319 320 320 319 320 320 322 321 321 320 319 317 316
299 297 295 298 300 306 307 308 306 311 313 314 313 314 315 316 315 314 315 315 314 314 315 315 316 320 320 318 317 316 316 315 315 316 315 314 314 315 317 317 317 318 319 319 319 319 318 318 318 318 317 316 316 316
296 295 297 299 304 304 309 310 308 311 313 314 314 315 314 314 314 315 314 313 313 314 313 315 318 317 315 315 314 314 314 314 315 314 314 315 315 316 316 317 317 317 317 317 317 317 318 318 317 316 316 315 314 314
302 301 303 301 305 308 309 309 312 312 312 312 312 313 314 315 314 312 310 311 312 315 315 313 313 312 313 314 313 313 313 314 314 315 315 315 316 316 315 316 317 316 315 315 315 315 315 315 315 315 315 315 314 314
302 304 306 306 305 304 304 307 310 310 313 313 313 311 313 313 309 309 311 311 311 309 308 308 309 310 311 311 312 314 313 314 315 316 316 316 316 317 316 315 315 315 314 314 314 315 315 315 314 313 313 312 312 312
303 305 307 306 305 305 308 309 310 311 310 310 311 312 312 311 308 309 309 308 308 307 308 309 309 312 313 313 314 314 314 315 315 316 316 317 317 317 316 316 315 314 314 314 314 313 313 312 312 312 312 312 312 312
304 301 304 301 307 308 309 308 308 308 309 311 312 312 311 308 308 307 306 308 310 310 311 314 314 313 314 314 314 314 314 315 316 315 314 315 317 317 316 315 314 314 313 313 313 313 312 312 313 314 314 315 311 310
303 304 307 309 310 310 308 308 309 310 310 311 311 310 309 310 310 309 310 310 310 311 314 314 314 315 315 314 314 315 315 315 316 317 316 317 316 316 316 316 316 315 315 316 317 317 317 315 313 310 310 310 311 311
306 309 310 309 309 309 310 308 308 309 311 312 311 311 311 312 310 311 310 311 312 314 314 314 314 314 314 315 315 315 314 315 317 317 316 316 316 316 316 316 318 316 315 316 312 309 309 309 309 310 310 312 312 311
306 306 309 308 307 307 309 311 311 312 312 313 312 314 314 312 313 311 310 313 314 314 315 315 315 315 315 317 317 316 317 317 316 312 310 310 310 310 309 310 310 310 311 311 311 311 311 311 312 311 311 311 310 310
304 305 306 308 308 309 310 313 314 314 313 313 314 313 312 310 311 312 312 313 314 314 315 315 316 316 316 317 317 316 315 313 311 313 311 310 310 309 309 310 311 311 311 310 310 310 310 311 311 311 311 310 310 310
310 308 311 313 314 315 315 314 315 314 313 313 312 313 313 313 312 312 313 314 314 315 316 316 317 317 317 317 317 316 314 312 312 312 313 313 312 311 311 311 311 311 310 310 309 308 308 309 309 309 310 311 310 310
312 311 313 315 316 314 312 312 312 312 313 314 313 313 314 314 313 313 314 315 316 317 317 316 315 312 313 313 313 313 313 313 313 313 313 313 312 312 312 311 311 312 312 312 311 311 310 310 311 311 311 311 310 309
315 316 316 315 316 313 313 314 314 315 314 315 314 315 315 316 316 317 316 316 317 318 317 314 313 312 312 312 313 313 313 312 311 312 313 313 312 312 313 313 312 312 312 312 311 312 312 311 311 311 310 310 309 308
316 315 315 314 314 314 314 313 314 314 314 314 314 313 313 313 313 313 312 312 313 312 312 312 312 312 312 312 312 311 310 309 308 308 308 308 308 310 310 310 311 311 311 311 311 311 311 310 310 309 309 308 307 306
Wind_Speed
14 13 14 12 12 11 10 12 13 14 15 14 16 19 21 22 21 21 6 6 6 3 8 7 9 7 8 8 4 7 4 5 2 1 1 3 3 6 7 9 5 8 6 5 2 4 9 6 6 2 5 3 12 12
16 14 14 14 12 11 10 11 11 12 14 15 15 16 19 20 21 15 7 11 14 6 6 22 22 15 11 4 3 5 3 9 4 3 2 3 3 3 3 3 5 4 7 5 8 6 6 11 8 5 4 1 6 11
18 17 15 15 13 12 10 10 10 12 14 14 15 15 17 18 18 17 12 14 16 3 7 9 7 13 8 7 6 1 3 5 4 3 3 3 3 3 2 2 4 10 7 4 4 13 12 13 12 17 6 7 10 13
19 18 16 15 14 12 11 10 10 11 14 14 14 14 15 16 16 16 11 9 15 7 3 1 9 3 3 5 8 8 4 4 4 2 2 2 3 4 3 2 3 4 4 6 5 6 6 8 3 1 13 8 12 15
17 16 15 14 14 12 11 10 11 12 13 13 14 14 15 16 17 17 11 6 12 4 3 6 19 9 10 5 6 6 3 1 3 3 2 3 3 3 4 3 2 2 3 3 2 4 2 3 3 2 6 7 9 10
17 15 15 14 13 12 11 11 11 12 13 13 13 14 14 15 17 8 3 6 8 7 3 3 2 4 8 6 4 4 5 2 3 1 3 3 5 2 2 1 1 8 9 2 3 3 3 4 6 7 7 7 8 9
15 16 16 15 12 12 11 11 11 12 12 13 13 14 14 13 12 5 4 5 9 7 3 4 3 3 10 7 5 3 9 3 3 3 3 3 5 3 1 3 4 7 7 6 6 7 7 1 4 5 9 9 17 13
16 17 17 16 14 14 11 10 10 11 12 12 13 13 13 9 10 7 3 5 5 5 5 3 2 2 11 3 3 4 4 4 3 3 2 4 4 2 3 5 4 1 6 6 3 5 4 6 3 3 6 8 5 6
21 19 18 16 15 14 11 10 9 10 11 12 13 9 4 2 4 2 3 6 5 4 3 3 3 3 7 5 1 2 4 4 4 4 6 3 4 4 7 10 8 1 6 6 8 7 7 7 9 7 3 6 5 6
24 21 18 17 16 15 12 10 9 9 10 10 7 4 2 3 4 6 2 3 5 4 4 3 1 3 2 3 3 0 2 3 2 4 5 6 4 8 8 6 8 8 8 6 3 4 6 6 5 6 7 8 1 2
23 24 21 20 17 16 13 10 8 8 6 2 4 2 2 3 2 4 2 3 4 3 5 4 7 2 2 5 2 4 2 4 1 4 1 1 2 2 10 12 10 9 8 8 9 8 7 6 5 3 2 6 9 1
20 27 23 21 19 17 14 11 8 5 3 6 11 8 4 3 3 3 3 3 4 4 3 4 4 1 2 2 3 1 2 2 4 4 1 4 2 7 8 8 8 8 9 7 9 7 10 13 17 9 7 2 9 10
21 26 24 22 19 17 15 11 8 9 10 6 4 3 3 2 1 5 6 4 3 0 3 3 3 3 4 3 3 3 3 6 4 2 2 2 7 6 6 6 6 6 6 7 8 11 12 12 18 18 19 9 13 6
16 28 26 22 20 17 14 11 7 3 2 3 3 2 4 4 5 6 5 2 3 4 3 2 2 2 2 2 3 3 4 4 3 4 4 3 3 5 7 8 6 6 7 7 8 13 14 17 14 17 19 22 19 14
22 26 25 22 20 17 14 10 7 4 3 3 4 4 7 7 7 2 7 5 2 3 3 3 2 2 1 2 3 1 1 3 4 4 3 3 6 6 6 6 6 7 6 6 12 8 14 17 18 14 19 19 22 20
33 29 21 22 20 16 13 10 7 4 4 4 5 5 3 3 7 8 3 4 3 1 2 2 1 2 3 2 2 4 3 4 2 2 2 3 6 6 6 7 10 13 13 12 12 14 14 13 14 16 19 13 15 19
28 10 23 23 19 16 14 7 7 5 4 3 4 4 1 6 2 4 4 4 8 2 2 0 2 1 3 2 3 3 3 2 5 3 3 4 4 5 7 11 13 13 14 12 11 13 12 15 17 15 11 6 4 13
9 22 25 23 21 13 6 5 5 4 5 5 5 5 6 5 3 3 2 3 2 3 2 2 2 2 2 3 3 3 4 4 5 4 4 3 4 8 9 11 13 13 12 10 11 11 12 13 9 3 5 7 15 15
26 27 25 26 15 5 8 6 5 4 6 3 4 2 3 3 4 2 2 2 5 2 3 1 2 3 1 4 5 4 5 4 4 4 4 7 10 10 12 14 14 11 8 7 6 1 9 11 9 7 10 12 15 16
22 23 24 23 5 3 3 4 7 3 3 3 3 2 1 1 4 3 2 3 3 3 1 2 2 3 3 4 4 4 3 3 2 4 4 4 11 11 8 6 8 9 14 14 14 13 14 16 16 15 15 18 16 14
17 17 15 11 4 7 4 2 3 1 3 2 3 5 0 2 0 3 3 4 2 1 2 2 4 5 10 7 7 6 4 4 2 1 3 3 9 5 8 9 13 13 11 11 11 12 12 12 15 13 15 17 19 23
10 15 4 8 5 7 4 5 2 4 1 1 2 1 2 2 3 4 6 1 3 3 3 4 5 5 5 4 6 3 3 6 6 7 5 5 1 3 6 8 8 10 12 11 13 12 16 17 18 18 20 19 17 20
9 5 5 6 2 3 4 5 2 2 2 3 2 2 2 3 3 6 1 1 2 3 4 7 8 5 5 5 3 2 3 4 4 6 8 8 7 7 11 13 11 10 10 13 19 20 19 20 23 22 22 20 18 22
2 2 3 2 4 2 2 1 4 4 4 2 3 2 2 2 2 2 2 2 3 4 2 5 4 2 1 2 1 1 0 3 7 8 7 5 8 12 12 12 10 10 16 17 15 17 20 22 24 22 19 17 18 17
3 3 2 4 3 1 1 2 3 2 1 1 1 1 2 1 1 1 2 2 2 4 3 2 2 2 2 2 3 3 4 5 4 5 4 2 12 11 12 15 14 12 11 11 9 9 12 14 8 7 8 11 15 16
1 2 2 1 1 2 1 2 2 2 2 3 1 2 2 1 1 3 2 2 2 2 1 2 2 2 3 5 3 5 9 7 4 6 6 5 12 14 10 8 6 6 11 8 8 8 10 11 7 15 14 11 12 17
2 1 2 3 2 2 2 1 1 2 2 3 2 3 2 2 2 2 2 2 2 4 6 8 10 8 5 6 7 11 12 11 11 6 6 8 6 12 5 6 11 10 9 11 4 11 11 11 11 12 11 7 9 14
1 1 1 1 0 1 2 2 3 3 2 3 3 2 2 2 1 1 1 3 8 11 10 9 13 11 12 11 9 8 11 11 9 9 14 14 14 14 14 17 18 14 16 15 13 9 6 4 7 11 15 14 11 9
2 2 2 3 3 4 4 3 2 3 3 3 2 3 3 1 2 3 5 5 6 6 7 6 11 13 13 14 14 13 12 8 13 8 10 6 9 9 9 9 8 8 9 9 9 11 13 13 15 14 11 8 6 6
4 5 3 4 3 5 2 1 2 5 5 4 3 2 2 2 7 14 8 8 9 12 13 14 12 15 15 16 14 11 6 8 7 9 6 6 12 16 15 13 13 12 9 6 4 2 3 3 1 1 2 2 4 5
5 5 3 1 4 4 4 7 12 12 8 3 6 7 5 4 7 12 14 15 15 15 12 13 10 5 5 8 9 14 12 16 15 18 12 16 15 12 7 3 4 5 3 2 6 11 7 8 11 12 6 7 6 5
1 1 4 9 6 6 5 3 3 2 2 3 5 7 6 6 7 10 17 25 23 23 18 15 9 12 14 15 22 23 21 15 15 16 16 17 14 12 14 7 9 6 5 3 2 4 5 4 9 9 8 4 3 2
3 1 6 7 7 6 7 5 6 7 6 4 5 5 7 5 3 2 4 6 3 9 5 10 15 14 17 16 14 13 13 13 11 9 7 7 6 5 8 10 9 7 6 5 6 5 3 3 3 4 3 3 3 3
Wind_Direction
264 267 270 274 288 303 308 315 325 332 341 342 348 351 352 355 359 1 295 343 355 311 293 355 353 349 348 21 14 326 340 20 101 178 281 249 240 240 235 246 197 178 176 209 193 236 269 330 20 34 201 253 166 176
262 266 269 265 273 293 297 308 315 325 331 338 338 341 347 351 357 5 306 348 338 263 273 306 291 285 287 325 340 327 304 23 2 355 15 312 282 321 338 289 283 219 177 191 170 203 114 62 68 7 22 346 333 152
261 262 263 259 263 283 289 297 307 320 326 329 334 336 340 345 352 356 317 327 318 267 280 241 245 262 230 247 260 5 50 18 -0 324 294 291 293 25 341 316 313 353 1 110 74 30 51 48 15 0 12 358 30 19
257 257 256 252 255 270 277 284 297 310 319 322 327 330 333 336 339 338 320 308 310 304 277 62 127 152 246 269 236 243 277 10 298 253 284 297 326 346 318 317 352 349 21 344 94 40 103 44 15 335 322 49 64 56
251 249 245 245 251 259 263 276 288 304 312 316 320 324 327 331 331 325 295 268 303 301 314 300 312 244 187 199 262 240 219 99 312 317 272 273 297 337 300 314 33 332 19 63 62 288 63 142 207 199 288 23 58 76
244 239 237 238 245 249 255 270 282 294 304 309 311 316 321 327 333 347 223 108 28 16 280 283 29 166 149 143 224 252 198 191 239 283 291 272 272 254 295 324 191 57 64 92 174 190 177 151 147 17 6 135 103 91
239 235 231 231 240 241 249 266 273 287 298 303 305 310 312 316 316 262 302 313 355 353 256 277 249 136 154 157 209 200 218 233 204 229 229 269 292 308 243 247 165 109 79 42 4 360 27 342 51 52 44 64 92 91
237 232 234 237 235 231 240 259 267 285 296 300 303 308 308 300 286 281 246 284 292 261 269 280 294 151 166 193 199 210 188 193 245 241 251 234 278 236 250 296 349 139 170 138 56 47 18 360 70 63 108 98 112 129
236 231 229 228 220 222 231 249 263 284 295 301 306 308 314 256 254 96 330 301 242 276 309 275 249 223 344 247 189 209 205 190 215 197 235 224 244 231 201 226 258 224 100 61 40 16 3 4 353 321 310 118 134 175
231 225 220 216 215 218 227 240 260 281 293 305 312 225 243 204 266 292 248 199 200 197 220 253 240 191 204 311 190 262 312 245 238 216 201 209 230 244 265 212 141 107 98 102 81 27 7 342 349 350 354 359 70 84
224 219 211 209 214 216 219 227 252 282 281 236 240 222 260 252 273 230 233 222 203 223 200 229 237 146 217 230 81 3 355 329 324 250 246 97 162 76 60 57 46 51 55 47 39 12 327 296 299 242 332 338 331 265
214 214 203 204 207 208 210 215 229 241 295 307 297 294 276 227 232 255 232 235 215 220 234 204 240 214 187 107 106 101 295 310 250 316 275 180 122 59 70 72 54 43 37 27 16 359 347 349 346 316 198 198 298 302
212 205 194 195 199 198 202 209 222 236 286 284 217 239 177 222 47 226 205 216 189 244 22 33 4 77 5 43 103 115 120 248 137 149 206 63 84 58 46 22 45 31 7 341 344 335 331 330 339 343 336 312 252 341
199 195 185 185 189 192 197 201 212 219 279 257 226 291 209 216 225 212 242 43 322 83 60 354 312 74 26 351 221 219 205 256 229 211 104 118 62 49 22 6 5 4 351 340 331 321 325 324 325 332 334 337 336 303
193 182 170 183 183 187 189 191 187 178 268 255 230 208 214 241 301 85 124 227 122 111 107 291 252 151 215 242 255 299 178 282 28 33 26 26 29 25 21 8 346 339 329 322 315 313 314 318 318 317 333 338 345 354
167 152 171 176 178 180 178 169 175 213 247 238 240 277 324 298 189 238 110 93 354 119 220 225 184 256 231 256 242 239 287 50 150 206 238 53 29 6 342 326 311 305 302 299 296 301 296 290 297 313 313 339 14 12
140 148 172 171 170 167 162 182 196 226 251 252 254 249 159 255 339 40 62 354 316 338 35 244 230 256 297 244 226 36 56 75 65 38 72 74 354 324 315 304 298 300 292 285 286 279 274 282 278 283 306 312 38 45
128 153 157 162 157 149 181 217 250 228 242 243 265 300 291 64 87 103 247 227 340 9 331 42 312 272 277 323 36 64 35 44 56 37 1 15 335 303 292 285 293 291 284 271 270 278 282 285 291 177 135 126 100 86
149 150 155 152 144 202 177 201 232 262 230 286 255 208 48 97 83 2 311 41 297 297 319 275 279 267 304 41 34 45 25 29 347 339 330 345 317 311 304 301 301 305 282 256 256 235 81 99 101 103 122 99 91 101
143 145 154 166 178 273 237 196 198 226 294 295 71 343 139 148 135 213 332 344 4 332 230 277 38 36 44 49 28 23 21 28 331 327 326 317 331 322 318 11 7 8 89 68 74 90 87 81 87 95 91 97 102 107
123 149 162 179 239 225 276 249 202 178 211 205 170 172 209 202 344 123 101 356 249 288 261 337 42 56 23 19 53 6 10 332 322 278 294 310 331 25 60 63 64 46 69 76 68 66 77 77 84 85 85 88 97 98
133 162 170 209 258 210 242 248 131 261 44 221 173 6 44 57 57 28 318 294 308 34 22 1 359 350 330 358 3 339 321 334 332 316 285 284 316 43 54 59 67 66 60 65 82 76 79 86 93 95 96 95 96 105
154 192 234 224 307 42 261 265 231 37 16 3 336 67 33 59 32 341 325 353 304 311 322 311 304 307 294 305 331 6 5 358 12 45 86 86 89 95 94 82 87 90 87 82 102 102 102 112 113 110 109 107 113 112
230 258 274 294 173 239 279 188 34 35 9 2 359 51 44 37 16 18 279 270 256 286 276 263 257 278 243 277 107 116 87 85 92 98 114 88 72 81 103 99 100 110 118 119 116 121 127 130 129 125 127 130 130 131
240 308 157 290 262 285 200 77 68 28 327 0 0 114 101 51 281 288 255 266 272 294 281 255 196 190 123 109 118 139 154 124 93 127 158 105 99 98 85 102 110 115 123 119 120 126 137 151 172 198 197 185 145 139
358 222 129 303 320 23 90 179 164 207 230 218 174 109 164 224 223 253 254 298 287 288 129 131 141 95 77 100 129 173 202 195 179 165 188 170 140 135 134 131 145 190 192 198 210 222 199 209 163 97 91 110 129 121
253 209 10 23 15 51 99 59 325 268 263 196 164 180 205 223 249 252 295 268 251 83 132 136 137 143 163 178 187 187 184 192 208 214 186 186 166 182 160 162 184 201 217 239 124 107 119 128 137 154 166 109 90 123
300 306 267 111 92 174 266 222 203 214 224 183 175 215 185 200 234 245 265 32 68 121 130 175 186 201 224 248 225 211 224 223 236 123 82 75 81 94 90 89 89 92 78 81 74 72 92 136 134 106 97 90 77 67
212 198 213 211 219 203 219 233 231 203 163 154 142 172 179 197 182 188 196 178 149 178 235 230 236 240 247 239 230 218 224 187 144 151 139 136 129 125 125 115 108 97 80 72 63 69 69 72 73 74 87 100 118 116
199 187 228 227 207 204 198 212 55 56 92 96 114 130 91 36 197 186 199 195 212 226 236 246 225 214 213 216 225 217 195 109 111 133 141 143 157 167 168 164 162 155 146 146 148 162 185 99 97 127 163 203 158 173
163 189 246 293 67 53 60 56 85 95 92 92 109 115 135 157 204 229 233 229 232 243 228 240 251 146 115 95 120 103 81 61 62 48 83 97 86 80 74 101 143 128 104 98 182 174 170 209 232 240 197 90 65 25
322 285 119 110 127 169 150 107 45 23 299 189 183 205 175 193 194 191 222 223 232 245 234 240 143 102 101 92 74 89 100 92 75 70 70 76 76 60 24 77 86 65 33 37 341 125 94 28 42 50 50 65 114 74
161 222 105 124 125 133 161 157 177 186 208 216 225 191 154 151 140 161 257 254 200 146 221 102 102 101 113 111 103 105 102 95 84 72 61 48 43 49 51 64 51 22 19 3 12 47 81 76 21 69 25 6 353 343